Powrót do katalogu

FENGYUN 1C DEB

LostSSO
NORAD 35136·DEBRIS·🇨🇳 China

Wystrzelony May 10, 1999 z Taiyuan Satellite Launch Center

Loading…

Następne Przeloty (najbliższe 24 godziny)

TLE

NieaktualneSource: Space-Track

Epoka: Sep 23, 2022, 00:50 UTC

1 35136U 99025DLQ 22266.03508437  .00003541  00000-0  12157-2 0  9992
2 35136  98.6812 351.5603 0075529 199.3400 160.4916 14.35123771714149

Śledź FENGYUN 1C DEB w czasie rzeczywistym z AllMySat

Download on the App Store